Terug naar catalogus

STARLINK-35224

ActiefCommunicatieSSO
NORAD 65811·PAYLOAD·🇺🇸 United States

Gelanceerd Sep 26, 2025 vanaf Vandenberg Space Force Base

Loading…

Volgende Passages (komende 24 uur)

TLE

VersSource: CelesTrak SupGP

Epoch: Sep 14, 2026, 15:38 UTC

1 65811C 25218W   26257.65187500 -.00043394  00000+0 -13471-2 0  2572
2 65811  97.2838 115.0759 0001397  86.3869 320.1570 15.33460433    19

Volg STARLINK-35224 in realtime met AllMySat

Download on the App Store